NORTHEAST SUFFOLK  -  Special Weather Statement Special Weather Statement        NORTHERN NASSAU  -  Special Weather Statement Special Weather Statement        NORTHWEST SUFFOLK  -  Special Weather Statement Special Weather Statement        SOUTHEAST SUFFOLK  -  Special Weather Statement Special Weather Statement        SOUTHERN NASSAU  -  Special Weather Statement Special Weather Statement        SOUTHWEST SUFFOLK  -  Special Weather Statement Special Weather Statement      

Active alerts

Northern Nassau
  Details for Northern Nassau Special Weather Statement
Southern Nassau
  Details for Southern Nassau Special Weather Statement
Northwest Suffolk
  Details for Northwest Suffolk Special Weather Statement
Southwest Suffolk
  Details for Southwest Suffolk Special Weather Statement
Northeast Suffolk
  Details for Northeast Suffolk Special Weather Statement
Southeast Suffolk
  Details for Southeast Suffolk Special Weather Statement


WXM80 ListenWXM80 Stop

You find our weather info also at:

UK Metoffice

WeatherCloud

Weather Underground

Northeastern Weather Network

AWEKAS

Citizen Weather Observer Program (CWOP)

HAMweather, WeatherForYou, PWS Weather


Weather Underground History page Text

Daily Summary for February 25, 2017 Units:  English    Metric   Both
« Previous Day
Next Day »
Daily Weekly Monthly Yearly Custom
  High: Low: Average:
Temperature: 66.6 °F 43.5 °F 56.7 °F
Dew Point: 59.8 °F 40.2 °F 54 °F
Humidity: 98 % 77 % 91 %
Wind Speed: 11.9 mph 0.3 mph 4.4 mph
Wind Gust: 21.9 mph - -
Wind:- - SSW
Pressure: 29.83 in 29.44 in -
Precipitation: 0.00 in    
Historical Graphs
 
 
Tabular Data for February 25, 2017
Time Temperature Dew Point Pressure Wind Wind Speed Wind Gust Humidity Rainfall Rate (Hourly)
00:04 56.3 °F 54.9 °F 29.83 in SW 3.2 mph 9.2 mph 95 % 0.00 in
00:09 56.2 °F 54.8 °F 29.83 in South 2.4 mph 6.9 mph 95 % 0.00 in
00:14 56.1 °F 54.7 °F 29.83 in South 2.2 mph 6.9 mph 95 % 0.00 in
00:19 56.0 °F 54.6 °F 29.83 in South 3.0 mph 5.8 mph 95 % 0.00 in
00:24 55.9 °F 54.5 °F 29.82 in SSW 3.7 mph 6.9 mph 95 % 0.00 in
00:29 55.8 °F 54.4 °F 29.82 in SSW 3.3 mph 8.1 mph 95 % 0.00 in
00:34 55.7 °F 54.3 °F 29.82 in SW 3.5 mph 8.1 mph 95 % 0.00 in
00:39 55.7 °F 54.3 °F 29.82 in South 2.3 mph 5.8 mph 95 % 0.00 in
00:44 55.6 °F 54.2 °F 29.82 in South 2.8 mph 5.8 mph 95 % 0.00 in
00:49 55.6 °F 54.2 °F 29.82 in South 3.1 mph 6.9 mph 95 % 0.00 in
00:55 55.5 °F 54.1 °F 29.82 in South 4.1 mph 5.8 mph 95 % 0.00 in
01:00 55.5 °F 54.1 °F 29.82 in South 3.1 mph 4.6 mph 95 % 0.00 in
01:05 55.5 °F 54.1 °F 29.82 in SSW 3.7 mph 6.0 mph 95 % 0.00 in
01:10 55.5 °F 54.4 °F 29.82 in SSW 2.1 mph 6.9 mph 96 % 0.00 in
01:15 55.5 °F 54.4 °F 29.82 in SSW 2.0 mph 5.8 mph 96 % 0.00 in
01:20 55.6 °F 54.5 °F 29.82 in SSW 1.2 mph 3.5 mph 96 % 0.00 in
01:25 55.6 °F 54.5 °F 29.82 in SSW 1.6 mph 4.6 mph 96 % 0.00 in
01:30 55.6 °F 54.5 °F 29.82 in South 2.8 mph 3.5 mph 96 % 0.00 in
01:35 55.6 °F 54.5 °F 29.82 in SW 3.0 mph 6.9 mph 96 % 0.00 in
01:40 55.5 °F 54.4 °F 29.81 in SSW 4.7 mph 8.1 mph 96 % 0.00 in
01:45 55.5 °F 54.4 °F 29.81 in SSW 3.5 mph 6.9 mph 96 % 0.00 in
01:50 55.5 °F 54.4 °F 29.81 in South 5.4 mph 7.0 mph 96 % 0.00 in
01:55 55.6 °F 54.5 °F 29.81 in South 3.5 mph 6.9 mph 96 % 0.00 in
02:00 55.6 °F 54.5 °F 29.81 in South 2.9 mph 8.0 mph 96 % 0.00 in
02:05 55.6 °F 54.5 °F 29.81 in South 2.9 mph 5.8 mph 96 % 0.00 in
02:10 55.7 °F 54.6 °F 29.81 in South 2.1 mph 4.6 mph 96 % 0.00 in
02:15 55.8 °F 54.7 °F 29.80 in South 3.2 mph 4.6 mph 96 % 0.00 in
02:20 55.8 °F 54.7 °F 29.80 in South 2.6 mph 4.6 mph 96 % 0.00 in
02:25 55.7 °F 54.6 °F 29.80 in SSW 2.0 mph 4.6 mph 96 % 0.00 in
02:30 55.6 °F 54.5 °F 29.80 in South 2.0 mph 3.5 mph 96 % 0.00 in
02:35 55.6 °F 54.5 °F 29.80 in SSW 1.2 mph 3.5 mph 96 % 0.00 in
02:40 55.5 °F 54.4 °F 29.80 in South 2.3 mph 3.5 mph 96 % 0.00 in
02:45 55.5 °F 54.4 °F 29.80 in SSE 4.2 mph 8.1 mph 96 % 0.00 in
02:50 55.5 °F 54.4 °F 29.80 in SSW 3.8 mph 5.8 mph 96 % 0.00 in
02:56 55.6 °F 54.5 °F 29.80 in South 3.1 mph 8.1 mph 96 % 0.00 in
03:01 55.7 °F 54.6 °F 29.80 in SSW 3.0 mph 9.2 mph 96 % 0.00 in
03:06 55.8 °F 54.7 °F 29.80 in South 2.1 mph 5.8 mph 96 % 0.00 in
03:11 55.9 °F 54.8 °F 29.80 in South 2.7 mph 4.0 mph 96 % 0.00 in
03:16 55.9 °F 54.8 °F 29.80 in SSW 3.3 mph 9.0 mph 96 % 0.00 in
03:21 55.9 °F 54.8 °F 29.80 in South 2.9 mph 4.6 mph 96 % 0.00 in
03:26 55.9 °F 54.8 °F 29.80 in South 1.4 mph 3.5 mph 96 % 0.00 in
03:31 55.9 °F 54.8 °F 29.80 in SSW 3.0 mph 9.2 mph 96 % 0.00 in
03:36 55.8 °F 54.7 °F 29.80 in South 1.7 mph 5.8 mph 96 % 0.00 in
03:41 55.7 °F 54.6 °F 29.79 in South 3.4 mph 8.1 mph 96 % 0.00 in
03:46 55.7 °F 54.6 °F 29.79 in SSW 5.6 mph 8.1 mph 96 % 0.00 in
03:51 55.6 °F 54.5 °F 29.79 in SSW 3.7 mph 6.9 mph 96 % 0.00 in
03:56 55.6 °F 54.5 °F 29.78 in South 5.2 mph 6.9 mph 96 % 0.00 in
04:01 55.5 °F 54.4 °F 29.78 in South 4.6 mph 5.8 mph 96 % 0.00 in
04:06 55.4 °F 54.3 °F 29.78 in SSW 5.1 mph 8.1 mph 96 % 0.00 in
04:11 55.4 °F 54.3 °F 29.78 in South 4.7 mph 8.1 mph 96 % 0.00 in
04:16 55.4 °F 54.3 °F 29.78 in South 4.0 mph 5.8 mph 96 % 0.00 in
04:21 55.5 °F 54.4 °F 29.78 in SSW 4.7 mph 6.9 mph 96 % 0.00 in
04:26 55.6 °F 54.8 °F 29.78 in SSW 5.4 mph 9.2 mph 97 % 0.00 in
04:31 55.7 °F 54.9 °F 29.77 in South 4.8 mph 8.1 mph 97 % 0.00 in
04:36 55.6 °F 54.8 °F 29.77 in SSW 4.6 mph 6.9 mph 97 % 0.00 in
04:42 55.5 °F 54.7 °F 29.77 in SSE 4.8 mph 5.8 mph 97 % 0.00 in
04:47 55.4 °F 54.3 °F 29.77 in South 2.4 mph 5.8 mph 96 % 0.00 in
04:52 55.3 °F 54.2 °F 29.77 in SW 4.8 mph 6.9 mph 96 % 0.00 in
04:57 55.2 °F 54.1 °F 29.77 in SSW 2.8 mph 4.6 mph 96 % 0.00 in
05:02 55.2 °F 54.4 °F 29.77 in SSW 2.4 mph 4.6 mph 97 % 0.00 in
05:07 55.1 °F 54.3 °F 29.77 in SSW 3.5 mph 4.6 mph 97 % 0.00 in
05:12 55.1 °F 54.3 °F 29.77 in SSW 1.1 mph 3.5 mph 97 % 0.00 in
05:17 55.0 °F 54.2 °F 29.77 in South 1.6 mph 3.5 mph 97 % 0.00 in
05:22 54.9 °F 54.1 °F 29.77 in South 3.0 mph 4.6 mph 97 % 0.00 in
05:27 54.8 °F 53.7 °F 29.77 in SSW 3.4 mph 6.9 mph 96 % 0.00 in
05:32 54.6 °F 53.5 °F 29.76 in South 2.3 mph 5.8 mph 96 % 0.00 in
05:37 54.5 °F 53.4 °F 29.76 in SSW 3.1 mph 6.9 mph 96 % 0.00 in
05:42 54.5 °F 53.4 °F 29.76 in South 1.4 mph 5.8 mph 96 % 0.00 in
05:47 54.4 °F 53.3 °F 29.76 in SSE 5.6 mph 10.4 mph 96 % 0.00 in
05:52 54.2 °F 53.1 °F 29.76 in SE 3.7 mph 8.1 mph 96 % 0.00 in
05:57 54.1 °F 53.0 °F 29.76 in South 2.8 mph 8.1 mph 96 % 0.00 in
06:02 54.0 °F 52.9 °F 29.76 in South 3.7 mph 6.9 mph 96 % 0.00 in
06:07 53.9 °F 52.8 °F 29.76 in South 3.5 mph 6.9 mph 96 % 0.00 in
06:12 53.8 °F 52.7 °F 29.76 in South 5.7 mph 8.1 mph 96 % 0.00 in
06:17 53.6 °F 52.5 °F 29.76 in South 3.0 mph 5.0 mph 96 % 0.00 in
06:22 53.5 °F 52.4 °F 29.76 in South 1.9 mph 8.1 mph 96 % 0.00 in
06:27 53.4 °F 52.3 °F 29.76 in SSE 1.7 mph 3.5 mph 96 % 0.00 in
06:33 53.3 °F 52.2 °F 29.76 in South 3.1 mph 4.6 mph 96 % 0.00 in
06:38 53.3 °F 52.5 °F 29.76 in SSW 4.6 mph 8.1 mph 97 % 0.00 in
06:43 53.2 °F 52.4 °F 29.76 in SSE 3.1 mph 10.4 mph 97 % 0.00 in
06:48 53.0 °F 52.2 °F 29.75 in South 4.3 mph 6.9 mph 97 % 0.00 in
06:53 53.0 °F 52.2 °F 29.75 in South 6.2 mph 10.4 mph 97 % 0.00 in
06:58 53.1 °F 52.3 °F 29.75 in South 6.5 mph 10.4 mph 97 % 0.00 in
07:03 53.2 °F 52.4 °F 29.75 in SSW 3.9 mph 6.0 mph 97 % 0.00 in
07:08 53.3 °F 52.5 °F 29.75 in SSW 3.7 mph 6.0 mph 97 % 0.00 in
07:13 53.3 °F 52.5 °F 29.75 in South 3.7 mph 9.2 mph 97 % 0.00 in
07:18 53.3 °F 52.5 °F 29.75 in South 5.0 mph 10.0 mph 97 % 0.00 in
07:23 53.3 °F 52.5 °F 29.76 in South 2.0 mph 8.0 mph 97 % 0.00 in
07:28 53.3 °F 52.5 °F 29.76 in South 5.0 mph 8.0 mph 97 % 0.00 in
07:33 53.3 °F 52.5 °F 29.76 in South 3.0 mph 9.0 mph 97 % 0.00 in
07:38 53.3 °F 52.5 °F 29.76 in South 2.0 mph 7.0 mph 97 % 0.00 in
07:43 53.4 °F 52.6 °F 29.76 in South 3.0 mph 7.0 mph 97 % 0.00 in
07:48 53.5 °F 52.7 °F 29.76 in South 2.0 mph 12.0 mph 97 % 0.00 in
07:53 53.6 °F 52.8 °F 29.75 in South 3.0 mph 8.0 mph 97 % 0.00 in
07:58 53.8 °F 53.0 °F 29.75 in SSE 2.8 mph 5.8 mph 97 % 0.00 in
08:03 54.0 °F 53.2 °F 29.75 in SSE 2.0 mph 13.0 mph 97 % 0.00 in
08:09 54.3 °F 53.7 °F 29.75 in SSE 2.3 mph 4.6 mph 98 % 0.00 in
08:14 54.6 °F 54.0 °F 29.74 in SSE 2.5 mph 7.0 mph 98 % 0.00 in
08:19 54.8 °F 54.2 °F 29.74 in SSE 3.3 mph 3.5 mph 98 % 0.00 in
08:24 55.1 °F 54.5 °F 29.74 in South 0.3 mph 3.5 mph 98 % 0.00 in
08:29 55.4 °F 54.8 °F 29.74 in South 1.7 mph 6.9 mph 98 % 0.00 in
08:34 55.5 °F 54.9 °F 29.74 in SSW 2.1 mph 5.0 mph 98 % 0.00 in
08:39 55.5 °F 54.9 °F 29.74 in SSW 2.0 mph 3.5 mph 98 % 0.00 in
08:44 55.7 °F 55.1 °F 29.74 in South 3.7 mph 3.7 mph 98 % 0.00 in
08:45 55.7 °F 55.1 °F 29.74 in South 1.8 mph 8.1 mph 98 % 0.00 in
08:50 55.8 °F 55.2 °F 29.73 in SSE 1.1 mph 4.6 mph 98 % 0.00 in
08:55 56.2 °F 55.6 °F 29.73 in SSE 3.3 mph 5.0 mph 98 % 0.00 in
09:00 56.7 °F 56.1 °F 29.73 in South 2.1 mph 8.0 mph 98 % 0.00 in
09:05 57.1 °F 56.5 °F 29.73 in South 4.6 mph 9.0 mph 98 % 0.00 in
09:10 57.6 °F 57.0 °F 29.73 in SSE 3.9 mph 7.0 mph 98 % 0.00 in
09:15 58.0 °F 57.4 °F 29.73 in SSE 3.3 mph 9.0 mph 98 % 0.00 in
09:20 58.5 °F 57.9 °F 29.73 in SE 1.4 mph 3.5 mph 98 % 0.00 in
09:25 59.1 °F 58.5 °F 29.73 in SE 2.0 mph 4.6 mph 98 % 0.00 in
09:30 59.5 °F 58.6 °F 29.73 in SE 1.2 mph 4.6 mph 97 % 0.00 in
09:35 59.7 °F 58.6 °F 29.72 in SSW 4.8 mph 9.0 mph 96 % 0.00 in
09:38 60.0 °F 58.9 °F 29.73 in SSW 3.7 mph 5.8 mph 96 % 0.00 in
09:43 60.6 °F 59.2 °F 29.72 in SSE 2.0 mph 4.6 mph 95 % 0.00 in
09:48 61.3 °F 59.6 °F 29.72 in SE 2.1 mph 5.8 mph 94 % 0.00 in
09:54 61.7 °F 59.4 °F 29.72 in SSE 5.6 mph 11.5 mph 92 % 0.00 in
09:59 62.0 °F 59.0 °F 29.72 in South 2.7 mph 4.6 mph 90 % 0.00 in
10:04 62.4 °F 58.8 °F 29.71 in SE 5.5 mph 10.4 mph 88 % 0.00 in
10:09 62.6 °F 59.0 °F 29.71 in SE 5.0 mph 10.4 mph 88 % 0.00 in
10:14 62.6 °F 58.7 °F 29.71 in South 2.9 mph 4.6 mph 87 % 0.00 in
10:19 62.7 °F 58.8 °F 29.70 in SSE 3.3 mph 5.0 mph 87 % 0.00 in
10:24 62.9 °F 58.6 °F 29.70 in SE 4.0 mph 9.2 mph 86 % 0.00 in
10:29 63.0 °F 58.7 °F 29.70 in SE 7.7 mph 13.8 mph 86 % 0.00 in
10:34 62.9 °F 58.6 °F 29.70 in SSW 4.6 mph 11.5 mph 86 % 0.00 in
10:39 63.2 °F 57.9 °F 29.70 in ENE 2.2 mph 4.6 mph 83 % 0.00 in
10:44 63.0 °F 58.1 °F 29.69 in SSE 8.9 mph 17.0 mph 84 % 0.00 in
10:49 62.4 °F 58.2 °F 29.69 in South 5.9 mph 10.0 mph 86 % 0.00 in
10:54 62.6 °F 58.7 °F 29.69 in SE 7.1 mph 13.8 mph 87 % 0.00 in
10:59 62.6 °F 58.4 °F 29.69 in South 7.5 mph 11.5 mph 86 % 0.00 in
11:04 62.8 °F 58.5 °F 29.68 in SE 3.6 mph 8.1 mph 86 % 0.00 in
11:09 63.1 °F 58.5 °F 29.68 in South 5.7 mph 13.8 mph 85 % 0.00 in
11:14 63.2 °F 58.6 °F 29.68 in SSW 6.8 mph 11.5 mph 85 % 0.00 in
11:19 63.7 °F 59.1 °F 29.67 in SSE 4.4 mph 9.2 mph 85 % 0.00 in
11:24 64.0 °F 58.7 °F 29.67 in SSE 7.5 mph 13.8 mph 83 % 0.00 in
11:29 63.8 °F 58.2 °F 29.67 in SSE 10.9 mph 15.0 mph 82 % 0.00 in
11:34 63.8 °F 58.5 °F 29.67 in SE 3.9 mph 11.5 mph 83 % 0.00 in
11:39 64.2 °F 58.6 °F 29.67 in ESE 6.9 mph 13.8 mph 82 % 0.00 in
11:45 64.8 °F 59.2 °F 29.67 in SSE 5.6 mph 8.1 mph 82 % 0.00 in
11:50 65.4 °F 59.8 °F 29.67 in South 5.5 mph 11.5 mph 82 % 0.00 in
11:55 65.5 °F 59.2 °F 29.67 in South 4.5 mph 11.5 mph 80 % 0.00 in
12:00 65.4 °F 59.1 °F 29.66 in South 5.6 mph 11.5 mph 80 % 0.00 in
12:05 65.3 °F 59.0 °F 29.65 in SSW 6.3 mph 9.0 mph 80 % 0.00 in
12:10 65.2 °F 58.9 °F 29.65 in South 7.3 mph 13.8 mph 80 % 0.00 in
12:15 65.0 °F 58.7 °F 29.65 in South 7.4 mph 11.0 mph 80 % 0.00 in
12:20 64.8 °F 58.8 °F 29.64 in South 5.4 mph 13.8 mph 81 % 0.00 in
12:25 64.7 °F 58.7 °F 29.65 in SSE 9.7 mph 11.0 mph 81 % 0.00 in
12:30 64.7 °F 58.7 °F 29.64 in SSE 7.8 mph 13.8 mph 81 % 0.00 in
12:35 64.9 °F 58.9 °F 29.64 in South 7.8 mph 11.0 mph 81 % 0.00 in
12:40 64.9 °F 58.6 °F 29.64 in South 4.2 mph 13.8 mph 80 % 0.00 in
12:45 64.9 °F 58.2 °F 29.63 in SSW 4.1 mph 13.8 mph 79 % 0.00 in
12:50 65.0 °F 58.3 °F 29.63 in South 11.4 mph 14.0 mph 79 % 0.00 in
12:55 65.2 °F 58.5 °F 29.62 in SSE 7.8 mph 11.5 mph 79 % 0.00 in
13:00 65.2 °F 58.2 °F 29.62 in SSE 10.6 mph 18.4 mph 78 % 0.00 in
13:05 65.3 °F 58.6 °F 29.61 in SSE 6.3 mph 9.2 mph 79 % 0.00 in
13:10 65.9 °F 58.8 °F 29.61 in South 6.1 mph 10.4 mph 78 % 0.00 in
13:15 66.0 °F 58.6 °F 29.60 in SSE 6.4 mph 11.5 mph 77 % 0.00 in
13:20 66.2 °F 59.1 °F 29.60 in SE 8.4 mph 16.0 mph 78 % 0.00 in
13:25 66.3 °F 58.9 °F 29.59 in SSE 7.1 mph 11.0 mph 77 % 0.00 in
13:30 65.7 °F 58.3 °F 29.59 in South 10.7 mph 21.9 mph 77 % 0.00 in
13:36 65.2 °F 58.5 °F 29.58 in SSE 4.2 mph 15.0 mph 79 % 0.00 in
13:41 65.3 °F 58.6 °F 29.58 in ESE 7.6 mph 12.0 mph 79 % 0.00 in
13:42 65.4 °F 58.7 °F 29.58 in SE 8.8 mph 13.8 mph 79 % 0.00 in
13:47 65.5 °F 58.8 °F 29.57 in SSW 6.5 mph 12.7 mph 79 % 0.00 in
13:52 65.8 °F 59.1 °F 29.57 in SSW 6.3 mph 9.2 mph 79 % 0.00 in
13:57 66.1 °F 59.4 °F 29.57 in SSW 5.7 mph 11.5 mph 79 % 0.00 in
14:02 66.5 °F 59.8 °F 29.57 in SSW 7.2 mph 18.4 mph 79 % 0.00 in
14:07 66.6 °F 59.5 °F 29.57 in South 6.7 mph 11.5 mph 78 % 0.00 in
14:12 66.5 °F 59.1 °F 29.57 in SSE 6.3 mph 10.4 mph 77 % 0.00 in
14:17 66.3 °F 59.2 °F 29.56 in SE 8.4 mph 13.8 mph 78 % 0.00 in
14:22 66.1 °F 59.4 °F 29.56 in SSE 9.1 mph 13.8 mph 79 % 0.00 in
14:27 65.8 °F 58.7 °F 29.55 in South 8.4 mph 18.4 mph 78 % 0.00 in
14:32 65.2 °F 58.9 °F 29.55 in SSE 9.0 mph 12.7 mph 80 % 0.00 in
14:37 64.9 °F 58.6 °F 29.55 in South 8.2 mph 12.7 mph 80 % 0.00 in
14:42 64.6 °F 58.6 °F 29.54 in SSE 7.4 mph 13.0 mph 81 % 0.00 in
14:47 64.5 °F 58.5 °F 29.54 in South 5.4 mph 9.2 mph 81 % 0.00 in
14:52 64.5 °F 58.5 °F 29.54 in SSE 2.2 mph 3.5 mph 81 % 0.00 in
14:58 64.7 °F 58.7 °F 29.53 in SSE 5.9 mph 11.5 mph 81 % 0.00 in
15:03 64.7 °F 58.7 °F 29.53 in South 3.7 mph 7.0 mph 81 % 0.00 in
15:08 64.7 °F 58.7 °F 29.53 in South 4.3 mph 6.9 mph 81 % 0.00 in
15:13 64.8 °F 58.8 °F 29.52 in South 7.1 mph 11.5 mph 81 % 0.00 in
15:18 64.7 °F 58.7 °F 29.52 in SSE 6.3 mph 9.2 mph 81 % 0.00 in
15:23 64.7 °F 58.7 °F 29.51 in South 9.8 mph 9.8 mph 81 % 0.00 in
15:28 64.7 °F 58.7 °F 29.51 in SSE 6.0 mph 16.0 mph 81 % 0.00 in
15:33 64.6 °F 58.6 °F 29.50 in South 5.5 mph 12.7 mph 81 % 0.00 in
15:38 64.5 °F 58.5 °F 29.50 in SSE 8.0 mph 15.0 mph 81 % 0.00 in
15:43 64.4 °F 58.4 °F 29.50 in South 8.0 mph 15.0 mph 81 % 0.00 in
15:48 64.4 °F 58.8 °F 29.49 in SSE 5.0 mph 14.0 mph 82 % 0.00 in
15:53 64.3 °F 58.7 °F 29.49 in SSE 10.0 mph 20.0 mph 82 % 0.00 in
15:58 63.6 °F 58.0 °F 29.48 in SSW 7.3 mph 15.0 mph 82 % 0.00 in
16:03 62.9 °F 57.7 °F 29.47 in South 5.1 mph 13.8 mph 83 % 0.00 in
16:08 62.6 °F 57.7 °F 29.47 in SSE 8.3 mph 11.5 mph 84 % 0.00 in
16:13 62.0 °F 57.4 °F 29.46 in SE 6.9 mph 12.7 mph 85 % 0.00 in
16:18 61.5 °F 57.3 °F 29.47 in ESE 7.1 mph 11.5 mph 86 % 0.00 in
16:23 61.2 °F 57.3 °F 29.47 in SSE 4.1 mph 10.4 mph 87 % 0.00 in
16:28 60.9 °F 57.0 °F 29.46 in SSE 2.8 mph 4.6 mph 87 % 0.00 in
16:33 60.8 °F 56.9 °F 29.46 in South 4.2 mph 6.9 mph 87 % 0.00 in
16:38 60.4 °F 56.8 °F 29.46 in South 10.4 mph 17.3 mph 88 % 0.00 in
16:43 59.6 °F 56.7 °F 29.47 in South 5.4 mph 15.0 mph 90 % 0.00 in
16:48 59.2 °F 56.6 °F 29.48 in South 7.4 mph 16.1 mph 91 % 0.00 in
16:53 58.8 °F 56.2 °F 29.48 in SSE 2.1 mph 5.0 mph 91 % 0.00 in
16:58 58.6 °F 56.0 °F 29.48 in South 3.2 mph 6.9 mph 91 % 0.00 in
17:04 58.5 °F 56.2 °F 29.48 in SSW 4.0 mph 7.0 mph 92 % 0.00 in
17:09 58.2 °F 55.9 °F 29.48 in South 2.9 mph 6.9 mph 92 % 0.00 in
17:14 58.1 °F 55.8 °F 29.48 in SSE 5.7 mph 10.4 mph 92 % 0.00 in
17:19 57.8 °F 55.8 °F 29.49 in SSW 4.9 mph 8.1 mph 93 % 0.00 in
17:24 57.7 °F 55.7 °F 29.49 in SSE 3.2 mph 9.2 mph 93 % 0.00 in
17:29 57.5 °F 55.5 °F 29.49 in South 3.6 mph 5.8 mph 93 % 0.00 in
17:34 57.3 °F 55.3 °F 29.49 in South 2.2 mph 4.0 mph 93 % 0.00 in
17:39 57.2 °F 55.2 °F 29.49 in South 5.2 mph 5.8 mph 93 % 0.00 in
17:44 57.1 °F 55.1 °F 29.48 in SSW 6.2 mph 11.0 mph 93 % 0.00 in
17:49 57.1 °F 55.1 °F 29.48 in South 5.4 mph 9.2 mph 93 % 0.00 in
17:54 56.9 °F 55.2 °F 29.48 in SSE 2.2 mph 8.1 mph 94 % 0.00 in
17:59 56.8 °F 55.1 °F 29.48 in South 6.3 mph 11.5 mph 94 % 0.00 in
18:04 56.6 °F 54.9 °F 29.47 in South 5.8 mph 12.7 mph 94 % 0.00 in
18:09 56.5 °F 54.8 °F 29.47 in South 3.0 mph 6.9 mph 94 % 0.00 in
18:14 56.5 °F 54.8 °F 29.47 in South 5.6 mph 11.5 mph 94 % 0.00 in
18:19 56.4 °F 55.0 °F 29.47 in SSE 3.5 mph 6.9 mph 95 % 0.00 in
18:24 56.4 °F 55.0 °F 29.47 in South 3.6 mph 5.8 mph 95 % 0.00 in
18:29 56.4 °F 55.0 °F 29.46 in SSE 3.3 mph 9.2 mph 95 % 0.00 in
18:34 56.4 °F 55.0 °F 29.46 in SSE 6.0 mph 9.2 mph 95 % 0.00 in
18:37 56.4 °F 55.0 °F 29.45 in South 1.7 mph 8.1 mph 95 % 0.00 in
18:40 56.4 °F 55.0 °F 29.46 in South 5.7 mph 8.1 mph 95 % 0.00 in
18:45 56.3 °F 54.9 °F 29.45 in SE 5.7 mph 11.5 mph 95 % 0.00 in
18:50 56.3 °F 54.9 °F 29.45 in SSW 5.8 mph 13.8 mph 95 % 0.00 in
18:55 56.3 °F 54.9 °F 29.44 in South 2.8 mph 9.2 mph 95 % 0.00 in
19:00 56.3 °F 54.9 °F 29.45 in South 5.1 mph 6.9 mph 95 % 0.00 in
19:05 56.2 °F 54.8 °F 29.46 in SSW 6.7 mph 10.4 mph 95 % 0.00 in
19:10 56.2 °F 54.8 °F 29.47 in SSW 7.1 mph 15.0 mph 95 % 0.00 in
19:15 56.2 °F 54.8 °F 29.48 in SW 7.3 mph 11.5 mph 95 % 0.03 in
19:20 56.2 °F 54.8 °F 29.50 in SW 6.5 mph 12.0 mph 95 % 0.04 in
19:25 56.0 °F 54.6 °F 29.48 in SW 3.2 mph 9.2 mph 95 % 0.05 in
19:30 56.0 °F 54.6 °F 29.48 in SW 3.4 mph 4.6 mph 95 % 0.06 in
19:35 55.9 °F 54.5 °F 29.48 in WSW 7.1 mph 9.2 mph 95 % 0.06 in
19:40 55.8 °F 54.4 °F 29.48 in West 1.9 mph 4.6 mph 95 % 0.07 in
19:45 55.8 °F 54.4 °F 29.49 in WSW 2.3 mph 4.6 mph 95 % 0.07 in
19:50 55.7 °F 54.3 °F 29.49 in SW 3.2 mph 3.5 mph 95 % 0.08 in
19:56 55.6 °F 54.2 °F 29.50 in West 1.8 mph 5.8 mph 95 % 0.08 in
20:01 55.5 °F 54.1 °F 29.49 in WNW 5.4 mph 8.0 mph 95 % 0.08 in
20:06 54.9 °F 53.2 °F 29.49 in WNW 8.5 mph 13.0 mph 94 % 0.09 in
20:11 53.9 °F 51.6 °F 29.50 in WNW 5.1 mph 11.5 mph 92 % 0.09 in
20:16 52.5 °F 49.7 °F 29.54 in WNW 11.9 mph 18.0 mph 90 % 0.06 in
20:21 51.2 °F 48.1 °F 29.55 in WNW 9.5 mph 12.7 mph 89 % 0.06 in
20:26 50.3 °F 47.5 °F 29.55 in NNE 5.3 mph 13.8 mph 90 % 0.05 in
20:31 49.6 °F 46.5 °F 29.55 in NW 6.8 mph 19.6 mph 89 % 0.04 in
20:36 49.2 °F 46.4 °F 29.55 in NW 3.6 mph 11.5 mph 90 % 0.04 in
20:41 48.8 °F 46.0 °F 29.54 in NW 6.0 mph 10.4 mph 90 % 0.03 in
20:46 48.4 °F 45.6 °F 29.54 in West 6.6 mph 12.7 mph 90 % 0.04 in
20:51 48.0 °F 44.9 °F 29.54 in West 5.0 mph 10.4 mph 89 % 0.03 in
20:56 47.7 °F 44.6 °F 29.53 in NW 4.6 mph 5.8 mph 89 % 0.03 in
21:01 47.4 °F 44.6 °F 29.54 in West 2.3 mph 6.9 mph 90 % 0.03 in
21:06 47.2 °F 44.1 °F 29.55 in WNW 4.4 mph 10.4 mph 89 % 0.02 in
21:11 46.9 °F 43.8 °F 29.56 in NW 4.6 mph 8.1 mph 89 % 0.02 in
21:16 46.8 °F 44.0 °F 29.55 in WNW 2.5 mph 7.0 mph 90 % 0.02 in
21:21 46.7 °F 43.9 °F 29.55 in NW 2.8 mph 10.4 mph 90 % 0.02 in
21:26 46.6 °F 43.8 °F 29.54 in WNW 3.5 mph 5.8 mph 90 % 0.02 in
21:31 46.6 °F 44.1 °F 29.56 in WNW 1.6 mph 3.5 mph 91 % 0.02 in
21:36 46.6 °F 44.1 °F 29.55 in WNW 1.6 mph 3.5 mph 91 % 0.02 in
21:41 46.6 °F 44.1 °F 29.54 in NW 1.6 mph 3.5 mph 91 % 0.02 in
21:46 46.6 °F 44.1 °F 29.54 in West 2.4 mph 4.6 mph 91 % 0.01 in
21:51 46.5 °F 44.0 °F 29.53 in NW 1.9 mph 5.8 mph 91 % 0.01 in
21:52 46.5 °F 44.0 °F 29.53 in NW 1.7 mph 5.8 mph 91 % 0.01 in
21:57 46.5 °F 44.0 °F 29.55 in WSW 4.8 mph 5.8 mph 91 % 0.01 in
22:02 46.5 °F 44.0 °F 29.56 in SW 3.7 mph 7.0 mph 91 % 0.01 in
22:07 46.4 °F 43.9 °F 29.55 in WSW 2.7 mph 10.4 mph 91 % 0.01 in
22:12 46.3 °F 43.8 °F 29.55 in WSW 4.8 mph 8.1 mph 91 % 0.01 in
22:17 46.2 °F 43.7 °F 29.56 in West 5.1 mph 6.0 mph 91 % 0.01 in
22:22 46.1 °F 43.6 °F 29.54 in SW 4.6 mph 9.2 mph 91 % 0.00 in
22:27 46.0 °F 43.5 °F 29.53 in West 3.0 mph 5.8 mph 91 % 0.00 in
22:32 45.9 °F 43.4 °F 29.55 in WSW 4.9 mph 6.9 mph 91 % 0.00 in
22:37 45.9 °F 43.4 °F 29.55 in WNW 0.9 mph 3.5 mph 91 % 0.00 in
22:42 45.7 °F 43.2 °F 29.57 in WSW 2.7 mph 4.6 mph 91 % 0.00 in
22:47 45.7 °F 43.2 °F 29.57 in WNW 3.9 mph 6.9 mph 91 % 0.00 in
22:52 45.7 °F 43.2 °F 29.58 in West 3.7 mph 5.8 mph 91 % 0.00 in
22:57 45.8 °F 43.3 °F 29.57 in West 2.8 mph 6.9 mph 91 % 0.00 in
23:02 45.9 °F 43.4 °F 29.58 in WNW 4.8 mph 5.8 mph 91 % 0.01 in
23:07 45.9 °F 43.4 °F 29.58 in West 2.4 mph 3.5 mph 91 % 0.01 in
23:12 45.9 °F 43.4 °F 29.58 in NW 4.2 mph 9.2 mph 91 % 0.01 in
23:17 45.8 °F 43.3 °F 29.57 in NW 5.1 mph 11.5 mph 91 % 0.01 in
23:23 45.7 °F 43.2 °F 29.57 in NNW 4.7 mph 8.1 mph 91 % 0.01 in
23:28 45.2 °F 42.4 °F 29.58 in NNW 4.3 mph 6.9 mph 90 % 0.01 in
23:33 44.9 °F 42.1 °F 29.59 in North 1.8 mph 6.0 mph 90 % 0.01 in
23:38 44.7 °F 42.2 °F 29.60 in North 1.3 mph 4.6 mph 91 % 0.01 in
23:43 44.5 °F 42.0 °F 29.61 in WNW 3.6 mph 5.8 mph 91 % 0.01 in
23:48 44.1 °F 41.1 °F 29.58 in North 5.5 mph 9.2 mph 89 % 0.01 in
23:53 43.7 °F 40.7 °F 29.59 in NNW 5.3 mph 6.0 mph 89 % 0.01 in
23:58 43.5 °F 40.2 °F 29.59 in NW 0.5 mph 10.4 mph 88 % 0.01 in
Crab Meadow Weather
Compliments of Weather Underground - 3 mb

Script developed by  Jim McMurry - jmcmurry@mwt.net Adapted for the template by  Wim van der Kuil - Leuven-Template.eu

Extremes: Currently the driest state is Nevada with an annual rainfall of only nine inches.